Tracking 30692 objects as of 16-Jun-2025
HD Live streaming from Space Station
objects crossing your sky now

CZ-3B DEB

Track CZ-3B DEB now!


NORAD ID: 40841
Int'l Code: 2011-077W
Perigee: 896.9 km
Apogee: 40,737.9 km
Inclination: 27.0 °
Period: 743.6 minutes
Semi major axis: 27188 km
RCS: Unknown
Launch date: December 19, 2011
Source: People's Republic of China (PRC)
Launch site: Xichang Space Center, China (XSC)

Note: This is SATELLITE DEBRIS
Your satellite tracking list
Your tracking list is empty




NASA's NSSDC Master Catalog

Two Line Element Set (TLE):
1 40841U 11077W   25164.93466204 -.00000035  00000-0 -41178-2 0  9998
2 40841  26.9771 102.4820 7326844 188.4621 143.4548  1.93654673 80788
Source of the keplerian elements: AFSPC